DW5963 Weather Reports


time (UTC)temp
C
wind
direction
speed
KPH
gust
KPH
rain 1hr
cm
rain 24hr
cm
rain mn
cm
humidity
%
barometer
mb
20260906214101 32 360 6.4 0.0 0.00 0.00 0.05 46 1006.8
20260906213601 32 360 3.2 0.0 0.00 0.00 0.05 43 1006.8
20260906213059 32 360 4.8 0.0 0.00 0.00 0.05 43 1007.0
20260906212555 32 265 6.4 0.0 0.00 0.00 0.05 44 1007.1
20260906212055 32 360 6.4 0.0 0.00 0.00 0.05 44 1007.2
20260906211557 32 360 6.4 0.0 0.00 0.00 0.05 44 1007.2
20260906211054 32 265 8.0 0.0 0.00 0.00 0.05 44 1007.3
20260906210552 31 321 6.4 0.0 0.00 0.00 0.05 46 1007.4
20260906210052 31 313 6.4 0.0 0.00 0.00 0.05 46 1007.5
20260906205551 31 360 6.4 0.0 0.00 0.00 0.05 46 1007.7
20260906205050 31 360 8.0 0.0 0.00 0.00 0.05 47 1007.7
20260906204049 31 360 9.7 0.0 0.00 0.00 0.05 47 1007.8
20260906203548 31 360 9.7 0.0 0.00 0.00 0.05 48 1007.9
20260906203047 31 360 8.0 0.0 0.00 0.00 0.05 49 1008.1
20260906202546 30 360 6.4 0.0 0.00 0.00 0.05 51 1008.2
20260906202046 30 360 4.8 0.0 0.00 0.00 0.05 51 1008.2
20260906201557 30 360 6.4 0.0 0.00 0.00 0.05 51 1008.3
20260906201044 30 360 6.4 0.0 0.00 0.00 0.05 52 1008.2
20260906200544 30 360 3.2 0.0 0.00 0.00 0.05 54 1008.3
20260906200043 29 360 4.8 0.0 0.00 0.00 0.05 55 1008.2
20260906195541 29 360 6.4 0.0 0.00 0.00 0.05 56 1008.3
20260906195044 29 360 6.4 0.0 0.00 0.00 0.05 57 1008.4
20260906194041 28 360 9.7 0.0 0.00 0.00 0.05 57 1008.7
20260906193540 29 360 9.7 0.0 0.00 0.00 0.05 57 1008.8
20260906193039 28 360 9.7 0.0 0.00 0.00 0.05 57 1008.9
20260906192540 28 360 9.7 0.0 0.00 0.00 0.05 58 1008.9
20260906192039 28 360 8.0 0.0 0.00 0.00 0.05 60 1009.0
20260906191539 28 360 8.0 0.0 0.00 0.00 0.05 60 1008.9
20260906191041 28 360 8.0 0.0 0.00 0.00 0.05 60 1009.0
20260906190538 28 360 9.7 0.0 0.00 0.00 0.05 59 1009.1
20260906190044 28 360 8.0 0.0 0.00 0.00 0.05 59 1009.2
20260906185536 28 360 8.0 0.0 0.00 0.00 0.05 60 1009.1
20260906185037 28 360 8.0 0.0 0.00 0.00 0.05 60 1009.1
20260906184035 27 360 8.0 0.0 0.00 0.00 0.05 64 1009.1
20260906183535 27 360 6.4 0.0 0.00 0.00 0.05 64 1009.2
20260906183054 27 360 6.4 0.0 0.00 0.00 0.05 65 1009.2
20260906182532 27 360 6.4 0.0 0.00 0.00 0.05 66 1009.1
20260906182035 27 360 6.4 0.0 0.00 0.00 0.05 66 1009.2
20260906181531 27 360 6.4 0.0 0.00 0.00 0.05 68 1009.2
20260906181030 26 360 6.4 0.0 0.00 0.00 0.05 68 1009.2
20260906180530 26 360 4.8 0.0 0.00 0.00 0.05 69 1009.2
20260906180028 26 360 3.2 0.0 0.00 0.00 0.05 69 1009.2
20260906175527 26 360 4.8 0.0 0.00 0.00 0.05 69 1009.3
20260906175026 26 360 4.8 0.0 0.00 0.00 0.05 72 1009.3
20260906174025 25 360 3.2 0.0 0.00 0.00 0.05 75 1009.3
20260906173524 25 360 4.8 0.0 0.00 0.00 0.05 75 1009.5
20260906173025 25 360 4.8 0.0 0.00 0.00 0.05 76 1009.5
20260906172522 25 360 3.2 0.0 0.00 0.00 0.05 77 1009.4
20260906172024 25 360 3.2 0.0 0.00 0.00 0.05 78 1009.5
20260906171522 24 360 3.2 0.0 0.00 0.00 0.05 80 1009.5
20260906171019 24 360 4.8 0.0 0.00 0.00 0.05 82 1009.4
20260906170517 23 360 6.4 0.0 0.00 0.00 0.05 83 1009.2
20260906170019 23 42 8.0 0.0 0.00 0.00 0.05 85 1009.1
20260906165516 23 360 6.4 0.0 0.00 0.00 0.05 88 1009.1
20260906165018 22 360 6.4 0.0 0.00 0.00 0.05 90 1009.1
20260906164015 21 360 8.0 0.0 0.00 0.00 0.05 93 1009.1
20260906163514 21 40 6.4 0.0 0.00 0.00 0.05 93 1009.4
20260906163012 21 360 4.8 0.0 0.00 0.00 0.05 94 1009.9
20260906162513 20 360 4.8 0.0 0.00 0.00 0.05 95 1009.4
20260906162008 20 360 4.8 0.0 0.00 0.00 0.05 94 1009.7
20260906161508 20 360 4.8 0.0 0.00 0.00 0.05 94 1009.7
20260906161007 20 360 6.4 0.0 0.00 0.00 0.05 95 1009.9
20260906160507 20 360 9.7 0.0 0.00 0.00 0.05 94 1009.7
20260906160006 20 360 9.7 0.0 0.00 0.00 0.05 95 1009.3
20260906155506 20 360 6.4 0.0 0.00 0.00 0.05 95 1009.2
20260906155006 20 360 6.4 0.0 0.00 0.00 0.05 95 1009.8
20260906154007 20 360 8.0 0.0 0.00 0.00 0.05 95 1010.1
20260906153506 20 360 6.4 0.0 0.00 0.00 0.05 95 1009.8
20260906153007 20 360 8.0 0.0 0.00 0.00 0.05 95 1008.9
20260906152506 20 360 8.0 0.0 0.00 0.00 0.05 95 1008.8
20260906152006 20 360 6.4 0.0 0.00 0.00 0.05 94 1009.1
20260906151519 20 360 6.4 0.0 0.00 0.00 0.05 95 1009.2
20260906151007 20 360 6.4 0.0 0.00 0.00 0.05 94 1009.4
20260906150505 19 360 9.7 0.0 0.00 0.00 0.05 94 1009.1
20260906150007 19 360 12.9 0.0 0.00 0.00 0.05 94 1008.7
20260906145504 19 360 11.3 0.0 0.00 0.00 0.05 94 1008.8
20260906145004 19 360 8.0 0.0 0.00 0.00 0.05 94 1009.8
20260906144003 19 360 6.4 0.0 0.00 0.00 0.03 94 1010.7
20260906143503 19 360 8.0 0.0 0.00 0.00 0.03 94 1011.1
20260906143003 19 360 11.3 0.0 0.00 0.00 0.03 94 1011.1
20260906142505 20 360 11.3 0.0 0.00 0.00 0.00 95 1010.4
20260906142003 20 360 8.0 0.0 0.00 0.00 0.00 95 1010.5
20260906141502 19 360 8.0 0.0 0.00 0.00 0.00 95 1010.8
20260906141004 18 360 8.0 0.0 0.00 0.00 0.00 95 1010.8
20260906140502 18 360 8.0 0.0 0.00 0.00 0.00 95 1011.0
20260906140001 18 360 8.0 0.0 0.00 0.00 0.00 95 1011.0
20260906135502 18 360 8.0 0.0 0.00 0.00 0.00 95 1011.4
20260906135002 18 360 6.4 0.0 0.00 0.00 0.00 95 1010.9
20260906134100 18 360 6.4 0.0 0.00 0.00 0.00 95 1011.4
20260906133600 18 360 4.8 0.0 0.00 0.00 0.00 95 1011.1
20260906133107 18 360 3.2 0.0 0.00 0.00 0.00 95 1011.4
20260906132601 18 360 6.4 0.0 0.00 0.00 0.00 95 1011.4
20260906132059 18 360 8.0 0.0 0.00 0.00 0.00 95 1010.8
20260906131605 18 360 8.0 0.0 0.00 0.00 0.00 95 1010.8
20260906131058 18 360 8.0 0.0 0.00 0.00 0.00 95 1010.5
20260906130558 18 360 8.0 0.0 0.00 0.00 0.00 95 1010.2
20260906130109 18 360 8.0 0.0 0.00 0.00 0.00 95 1010.1
20260906125602 18 360 8.0 0.0 0.00 0.00 0.00 95 1010.1
20260906125058 18 360 6.4 0.0 0.00 0.00 0.00 95 1010.1
20260906124101 17 360 4.8 0.0 0.00 0.00 0.00 95 1010.5
20260906123600 17 360 4.8 0.0 0.00 0.00 0.00 95 1010.5
20260906123058 17 360 4.8 0.0 0.00 0.00 0.00 95 1010.4
20260906122557 17 360 3.2 0.0 0.00 0.00 0.00 95 1010.8
20260906122101 17 360 1.6 0.0 0.00 0.00 0.00 95 1010.8
20260906121606 17 360 3.2 0.0 0.00 0.00 0.00 95 1010.8
20260906121056 17 360 3.2 0.0 0.00 0.00 0.00 95 1010.9
20260906120556 16 360 3.2 0.0 0.00 0.00 0.00 95 1010.7
20260906120057 16 360 1.6 0.0 0.00 0.00 0.00 94 1011.0
20260906115557 16 360 0.0 0.0 0.00 0.00 0.00 94 1011.0
20260906115056 16 360 0.0 0.0 0.00 0.00 0.00 94 1011.0
20260906114054 16 360 0.0 0.0 0.00 0.00 0.00 94 1010.7
20260906113554 17 360 0.0 0.0 0.00 0.00 0.00 94 1010.8
20260906113057 17 360 0.0 0.0 0.00 0.00 0.00 94 1010.6
20260906112553 17 360 1.6 0.0 0.00 0.00 0.00 94 1010.7
20260906112053 16 360 1.6 0.0 0.00 0.00 0.00 94 1010.4
20260906111553 16 360 1.6 0.0 0.00 0.00 0.00 93 1010.2
20260906111051 17 360 1.6 0.0 0.00 0.00 0.00 93 1010.3
20260906110553 17 360 1.6 0.0 0.00 0.00 0.00 94 1010.4
20260906110049 17 360 1.6 0.0 0.00 0.00 0.00 94 1010.4
20260906105550 17 360 1.6 0.0 0.00 0.00 0.00 94 1010.2
20260906105049 17 360 1.6 0.0 0.00 0.00 0.00 93 1010.3
20260906104049 17 360 0.0 0.0 0.00 0.00 0.00 93 1010.2
20260906103553 17 360 0.0 0.0 0.00 0.00 0.00 93 1010.3
20260906103049 17 360 1.6 0.0 0.00 0.00 0.00 93 1010.2
20260906102548 17 360 3.2 0.0 0.00 0.00 0.00 94 1010.1
20260906102049 17 360 4.8 0.0 0.00 0.00 0.00 93 1010.0
20260906101548 17 360 4.8 0.0 0.00 0.00 0.00 93 1009.8
20260906101048 17 360 4.8 0.0 0.00 0.00 0.00 93 1009.8
20260906100547 17 360 3.2 0.0 0.00 0.00 0.00 93 1009.8
20260906100045 17 360 3.2 0.0 0.00 0.00 0.00 93 1010.0
20260906095544 18 360 4.8 0.0 0.00 0.00 0.00 93 1009.9
20260906095048 18 360 4.8 0.0 0.00 0.00 0.00 93 1009.9
20260906094043 18 360 4.8 0.0 0.00 0.00 0.00 93 1010.1
20260906093543 18 360 3.2 0.0 0.00 0.00 0.00 92 1010.1
20260906093042 18 360 3.2 0.0 0.00 0.00 0.00 93 1010.0
20260906092543 18 360 3.2 0.0 0.00 0.00 0.00 93 1009.9
20260906092041 18 360 4.8 0.0 0.00 0.00 0.00 93 1009.8
20260906091541 18 360 4.8 0.0 0.00 0.00 0.00 92 1009.7
20260906091040 18 360 3.2 0.0 0.00 0.00 0.00 92 1009.8
20260906090540 18 360 4.8 0.0 0.00 0.00 0.00 93 1009.7
20260906090042 18 360 4.8 0.0 0.00 0.00 0.00 93 1009.7
20260906085540 18 360 4.8 0.0 0.00 0.00 0.00 92 1009.8
20260906085039 18 360 4.8 0.0 0.00 0.00 0.00 92 1009.8
20260906084039 18 360 3.2 0.0 0.00 0.00 0.00 92 1009.9
20260906083538 18 360 3.2 0.0 0.00 0.00 0.00 92 1010.0
20260906083038 18 360 3.2 0.0 0.00 0.00 0.00 92 1010.1
20260906082537 18 360 4.8 0.0 0.00 0.00 0.00 91 1010.1
20260906082039 19 360 4.8 0.0 0.00 0.00 0.00 92 1010.0
20260906081543 19 360 4.8 0.0 0.00 0.00 0.00 91 1010.1
20260906081036 19 360 4.8 0.0 0.00 0.00 0.00 91 1010.0
20260906080536 19 360 6.4 0.0 0.00 0.00 0.00 91 1010.2
20260906080035 19 360 4.8 0.0 0.00 0.00 0.00 91 1010.3
20260906075533 19 360 4.8 0.0 0.00 0.00 0.00 91 1010.1
20260906075035 19 360 4.8 0.0 0.00 0.00 0.00 91 1010.3
20260906074032 19 360 3.2 0.0 0.00 0.00 0.00 90 1010.3
20260906073532 20 360 4.8 0.0 0.00 0.00 0.00 90 1010.3
20260906073032 20 360 4.8 0.0 0.00 0.00 0.00 90 1010.3
20260906072531 20 360 4.8 0.0 0.00 0.00 0.00 90 1010.4
20260906072033 20 360 4.8 0.0 0.00 0.00 0.00 90 1010.4
20260906071530 20 360 4.8 0.0 0.00 0.00 0.00 90 1010.5
20260906071033 20 360 4.8 0.0 0.00 0.00 0.00 89 1010.6
20260906070533 20 360 4.8 0.0 0.00 0.00 0.00 89 1010.7
20260906070031 20 360 3.2 0.0 0.00 0.00 0.00 90 1010.7
20260906065530 20 360 3.2 0.0 0.00 0.00 0.00 89 1010.6
20260906065033 20 360 4.8 0.0 0.00 0.00 0.00 90 1010.7
20260906064030 20 360 3.2 0.0 0.00 0.00 0.00 90 1010.7
20260906063529 20 360 3.2 0.0 0.00 0.00 0.00 89 1010.7
20260906063030 20 360 3.2 0.0 0.00 0.00 0.00 89 1010.7
20260906062529 20 360 3.2 0.0 0.00 0.00 0.00 89 1010.7
20260906062032 20 360 3.2 0.0 0.00 0.00 0.00 89 1010.6
20260906061529 20 360 4.8 0.0 0.00 0.00 0.00 88 1010.6
20260906061029 20 360 4.8 0.0 0.00 0.00 0.00 88 1010.7
20260906060529 20 360 4.8 0.0 0.00 0.00 0.00 88 1010.7
20260906060033 20 360 4.8 0.0 0.00 0.00 0.00 88 1010.7
20260906055530 20 360 4.8 0.0 0.00 0.00 0.00 88 1010.7
20260906055030 20 360 4.8 0.0 0.00 0.00 0.00 88 1010.8
20260906054029 20 360 4.8 0.0 0.00 0.00 0.00 87 1010.8
20260906053530 20 360 4.8 0.0 0.00 0.00 0.00 87 1010.7
20260906053033 20 360 3.2 0.0 0.00 0.00 0.00 87 1010.7
20260906052528 20 360 3.2 0.0 0.00 0.00 0.00 86 1010.7
20260906052029 21 360 4.8 0.0 0.00 0.00 0.00 86 1010.7
20260906051528 21 360 3.2 0.0 0.00 0.00 0.00 86 1010.7
20260906051028 21 360 3.2 0.0 0.00 0.00 0.00 85 1010.7
20260906050527 21 360 3.2 0.0 0.00 0.00 0.00 84 1010.6
20260906050033 21 360 3.2 0.0 0.00 0.00 0.00 85 1010.6
20260906045527 21 360 3.2 0.0 0.00 0.00 0.00 84 1010.6
20260906045031 21 360 3.2 0.0 0.00 0.00 0.00 84 1010.6
20260906044028 22 360 3.2 0.0 0.00 0.00 0.00 83 1010.6
20260906043530 22 360 4.8 0.0 0.00 0.00 0.00 83 1010.6
20260906043027 22 360 4.8 0.0 0.00 0.00 0.00 83 1010.6
20260906042526 22 360 4.8 0.0 0.00 0.00 0.00 83 1010.6
20260906042027 22 360 6.4 0.0 0.00 0.00 0.00 82 1010.5
20260906041531 22 360 8.0 0.0 0.00 0.00 0.00 82 1010.5
20260906041026 22 360 8.0 0.0 0.00 0.00 0.00 82 1010.7
20260906040526 22 360 8.0 0.0 0.00 0.00 0.00 82 1010.6
20260906040029 23 360 8.0 0.0 0.00 0.00 0.00 81 1010.6
20260906035526 23 360 8.0 0.0 0.00 0.00 0.00 81 1010.5
20260906035026 23 360 8.0 0.0 0.00 0.00 0.00 80 1010.6
20260906034026 23 360 11.3 0.0 0.00 0.00 0.00 79 1010.6
20260906033525 23 360 12.9 0.0 0.00 0.00 0.00 79 1010.6
20260906033038 23 360 12.9 0.0 0.00 0.00 0.00 79 1010.6
20260906032525 24 360 12.9 0.0 0.00 0.00 0.00 79 1010.7
20260906032025 23 360 11.3 0.0 0.00 0.00 0.00 79 1010.6
20260906031528 23 360 9.7 0.0 0.00 0.00 0.00 79 1010.5
20260906031024 23 360 9.7 0.0 0.00 0.00 0.00 78 1010.5
20260906030525 23 360 9.7 0.0 0.00 0.00 0.00 77 1010.4
20260906030023 24 360 11.3 0.0 0.00 0.00 0.00 77 1010.3
20260906025522 24 360 11.3 0.0 0.00 0.00 0.00 77 1010.3
20260906025025 24 360 11.3 0.0 0.00 0.00 0.00 76 1010.2
20260906024023 24 360 12.9 0.0 0.00 0.00 0.00 75 1010.0
20260906023520 24 360 12.9 0.0 0.00 0.00 0.00 74 1009.8
20260906023024 25 360 12.9 0.0 0.00 0.00 0.00 74 1010.0
20260906022523 25 360 12.9 0.0 0.00 0.00 0.00 73 1009.9
20260906022019 25 360 12.9 0.0 0.00 0.00 0.00 72 1009.8
20260906021519 25 360 12.9 0.0 0.00 0.00 0.00 72 1009.7
20260906021019 25 360 12.9 0.0 0.00 0.00 0.00 72 1009.8
20260906020519 25 360 12.9 0.0 0.00 0.00 0.00 71 1009.7
20260906020019 25 360 11.3 0.0 0.00 0.00 0.00 71 1009.8
20260906015518 26 360 12.9 0.0 0.00 0.00 0.00 70 1009.7
20260906015018 26 38 11.3 0.0 0.00 0.00 0.00 70 1009.7
20260906014016 26 360 9.7 0.0 0.00 0.00 0.00 69 1009.5
20260906013517 26 360 8.0 0.0 0.00 0.00 0.00 69 1009.4
20260906013020 26 360 8.0 0.0 0.00 0.00 0.00 68 1009.3
20260906012519 26 360 8.0 0.0 0.00 0.00 0.00 67 1009.2
20260906012017 27 360 6.4 0.0 0.00 0.00 0.00 66 1009.2
20260906011520 27 360 6.4 0.0 0.00 0.00 0.00 66 1009.1
20260906011016 27 360 4.8 0.0 0.00 0.00 0.00 64 1008.8
20260906010519 28 360 4.8 0.0 0.00 0.00 0.00 63 1008.8
20260906010015 28 360 3.2 0.0 0.00 0.00 0.00 62 1008.7
20260906005515 28 360 3.2 0.0 0.00 0.00 0.00 62 1008.4
20260906005017 28 360 4.8 0.0 0.00 0.00 0.00 61 1008.4
20260906004015 28 360 4.8 0.0 0.00 0.00 0.00 61 1008.4
20260906003518 28 360 4.8 0.0 0.00 0.00 0.00 61 1008.3
20260906003015 28 360 4.8 0.0 0.00 0.00 0.00 60 1008.4
20260906002514 28 360 4.8 0.0 0.00 0.00 0.00 60 1008.5
20260906002015 28 360 6.4 0.0 0.00 0.00 0.00 60 1008.6
20260906001515 28 360 8.0 0.0 0.00 0.00 0.00 60 1008.5
20260906001013 28 360 6.4 0.0 0.00 0.00 0.00 59 1008.5
20260906000514 29 360 6.4 0.0 0.00 0.00 0.00 59 1008.6
20260906000014 29 360 6.4 0.0 0.00 0.00 0.00 59 1008.6
20260905235515 29 360 8.0 0.0 0.00 0.00 0.00 59 1008.5
20260905235018 29 360 9.7 0.0 0.00 0.00 0.00 59 1008.5
20260905234014 29 360 8.0 0.0 0.00 0.00 0.00 59 1008.5
20260905233515 29 360 9.7 0.0 0.00 0.00 0.00 60 1008.4
20260905233013 29 360 9.7 0.0 0.00 0.00 0.00 59 1008.4
20260905232513 29 360 8.0 0.0 0.00 0.00 0.00 60 1008.3
20260905232013 28 360 11.3 0.0 0.00 0.00 0.00 60 1008.2
20260905231512 29 360 11.3 0.0 0.00 0.00 0.00 60 1008.2
20260905231012 29 360 8.0 0.0 0.00 0.00 0.00 60 1008.2
20260905230512 28 360 8.0 0.0 0.00 0.00 0.00 60 1008.2
20260905230012 28 360 8.0 0.0 0.00 0.00 0.00 59 1008.2
20260905225512 28 360 6.4 0.0 0.00 0.00 0.00 60 1008.2
20260905225012 28 360 8.0 0.0 0.00 0.00 0.00 59 1008.2
20260905224014 29 360 6.4 0.0 0.00 0.00 0.00 59 1008.1
20260905223510 29 360 6.4 0.0 0.00 0.00 0.00 59 1008.1
20260905223010 28 360 8.0 0.0 0.00 0.00 0.00 59 1008.2
20260905222511 28 360 8.0 0.0 0.00 0.00 0.00 60 1008.2
20260905222009 28 360 8.0 0.0 0.00 0.00 0.00 60 1008.3
20260905221513 29 360 9.7 0.0 0.00 0.00 0.00 59 1008.2
20260905221010 29 360 8.0 0.0 0.00 0.00 0.00 59 1008.4
20260905220508 28 360 8.0 0.0 0.00 0.00 0.00 60 1008.5
20260905220008 28 360 9.7 0.0 0.00 0.00 0.00 60 1008.4
20260905215509 28 360 9.7 0.0 0.00 0.00 0.00 59 1008.5
20260905215007 28 360 8.0 0.0 0.00 0.00 0.00 60 1008.6